JAL91 RJTT-RJOH

Flight info

Callsign JAL91
Flight time N/A
Altitude 40000
Route BEKLA Y18 RAKDA
Aircraft A359/H-SDE2E3GHIJ3J4J5LM1ORWXY/LB1D1

Departure

Time 2026-05-06 13:01
Airport Tokyo Haneda International Airport (RJTT)

Arrival

Time N/A
Airport Yonago Kitaro Airport / JASDF Miho Air Base (RJOH)
Time Latitude Longitude Altitude Speed Heading
2026-05-06 12:23 35.54704 139.78366 31 ft 0 kts 57°
2026-05-06 12:49 35.54698 139.78354 30 ft 3 kts 57°
2026-05-06 12:49 35.54688 139.78335 29 ft 3 kts 57°
2026-05-06 12:49 35.54678 139.78316 31 ft 3 kts 57°
2026-05-06 12:50 35.54671 139.78295 29 ft 1 kts 90°
2026-05-06 12:50 35.54671 139.78281 29 ft 2 kts 90°
2026-05-06 12:50 35.54671 139.78261 29 ft 2 kts 90°
2026-05-06 12:50 35.54674 139.78238 27 ft 3 kts 128°
2026-05-06 12:51 35.54680 139.78229 28 ft 0 kts 148°
2026-05-06 12:52 35.54659 139.78245 30 ft 9 kts 148°
2026-05-06 12:52 35.54572 139.78310 31 ft 20 kts 150°
2026-05-06 12:53 35.54470 139.78379 31 ft 27 kts 151°
2026-05-06 12:53 35.54320 139.78498 31 ft 27 kts 125°
2026-05-06 12:53 35.54364 139.78693 31 ft 25 kts 61°
2026-05-06 12:53 35.54453 139.78889 31 ft 27 kts 60°
2026-05-06 12:54 35.54550 139.79095 31 ft 28 kts 58°
2026-05-06 12:54 35.54652 139.79304 30 ft 27 kts 59°
2026-05-06 12:54 35.54715 139.79435 30 ft 0 kts 59°
2026-05-06 12:55 35.54716 139.79437 30 ft 1 kts 59°
2026-05-06 12:55 35.54739 139.79484 30 ft 11 kts 59°
2026-05-06 12:55 35.54790 139.79596 30 ft 17 kts 70°
2026-05-06 12:56 35.54740 139.79713 30 ft 18 kts 146°
2026-05-06 12:56 35.54630 139.79796 30 ft 19 kts 150°
2026-05-06 12:56 35.54509 139.79880 30 ft 20 kts 148°
2026-05-06 12:56 35.54382 139.79971 30 ft 22 kts 150°
2026-05-06 12:57 35.54283 139.80063 30 ft 13 kts 111°
2026-05-06 12:57 35.54287 139.80122 29 ft 0 kts 65°
2026-05-06 12:59 35.54300 139.80155 30 ft 9 kts 65°
2026-05-06 12:59 35.54349 139.80231 30 ft 9 kts 11°
2026-05-06 13:00 35.54365 139.80224 30 ft 0 kts 334°
2026-05-06 13:00 35.54380 139.80214 30 ft 18 kts 329°
2026-05-06 13:01 35.54782 139.79918 30 ft 119 kts 330°
2026-05-06 13:01 35.55775 139.79223 150 ft 199 kts 328°
2026-05-06 13:01 35.56978 139.78217 1070 ft 217 kts 310°
2026-05-06 13:01 35.58036 139.76799 2144 ft 242 kts 312°
2026-05-06 13:02 35.59616 139.76198 3707 ft 247 kts
2026-05-06 13:02 35.61265 139.76869 4983 ft 256 kts 33°
2026-05-06 13:02 35.62462 139.78532 5540 ft 272 kts 65°
2026-05-06 13:02 35.62830 139.80834 6109 ft 281 kts 97°
2026-05-06 13:03 35.62335 139.83144 6916 ft 282 kts 115°
2026-05-06 13:03 35.61656 139.85444 7687 ft 292 kts 108°
2026-05-06 13:03 35.61308 139.87945 8543 ft 302 kts 99°
2026-05-06 13:03 35.61156 139.90515 9400 ft 311 kts 94°
2026-05-06 13:04 35.61508 139.93169 10181 ft 323 kts 68°
2026-05-06 13:04 35.62826 139.95470 10616 ft 341 kts 38°
2026-05-06 13:04 35.64934 139.96871 11016 ft 353 kts 16°
2026-05-06 13:04 35.67329 139.97676 11615 ft 359 kts
2026-05-06 13:05 35.69795 139.97565 12378 ft 354 kts 341°
2026-05-06 13:05 35.71949 139.96233 13159 ft 347 kts 316°
2026-05-06 13:05 35.73386 139.93901 13900 ft 343 kts 290°
2026-05-06 13:05 35.74016 139.91082 14574 ft 344 kts 281°
2026-05-06 13:06 35.74982 139.88398 15281 ft 351 kts 298°
2026-05-06 13:06 35.76240 139.85807 16045 ft 354 kts 297°
2026-05-06 13:06 35.77447 139.83166 16829 ft 356 kts 295°
2026-05-06 13:06 35.78601 139.80460 17613 ft 358 kts 294°
2026-05-06 13:07 35.79700 139.77693 18381 ft 361 kts 292°
2026-05-06 13:07 35.80735 139.74868 19054 ft 363 kts 290°
2026-05-06 13:07 35.81702 139.71993 19669 ft 365 kts 287°
2026-05-06 13:07 35.82597 139.69059 20093 ft 365 kts 285°
2026-05-06 13:08 35.83404 139.66090 20609 ft 366 kts 283°
2026-05-06 13:08 35.84115 139.63130 21429 ft 363 kts 281°
2026-05-06 13:08 35.84737 139.60134 22316 ft 359 kts 278°
2026-05-06 13:08 35.85261 139.57133 23171 ft 356 kts 275°
2026-05-06 13:09 35.85683 139.54135 23952 ft 354 kts 273°
2026-05-06 13:09 35.85980 139.51125 24527 ft 355 kts 270°
2026-05-06 13:09 35.86159 139.48078 25033 ft 358 kts 268°
2026-05-06 13:09 35.86219 139.45006 25593 ft 358 kts 265°
2026-05-06 13:10 35.86155 139.41931 26185 ft 359 kts 263°
2026-05-06 13:10 35.85958 139.38867 26776 ft 359 kts 260°
2026-05-06 13:10 35.85619 139.35819 27369 ft 360 kts 257°
2026-05-06 13:10 35.85127 139.32791 27898 ft 362 kts 255°
2026-05-06 13:11 35.84481 139.29831 28153 ft 362 kts 251°
2026-05-06 13:11 35.83577 139.23708 28365 ft 370 kts 264°
2026-05-06 13:11 35.83557 139.20507 28764 ft 375 kts 265°
2026-05-06 13:12 35.83518 139.17290 29326 ft 376 kts 263°
2026-05-06 13:12 35.83317 139.14087 29914 ft 375 kts 260°
2026-05-06 13:12 35.83046 139.10893 30457 ft 376 kts 259°
2026-05-06 13:12 35.82780 139.07688 30897 ft 378 kts 260°
2026-05-06 13:13 35.82545 139.04484 31236 ft 382 kts 261°
2026-05-06 13:13 35.82339 139.01206 31601 ft 385 kts 261°
2026-05-06 13:13 35.82158 138.97899 32036 ft 388 kts 262°
2026-05-06 13:13 35.81990 138.94573 32445 ft 390 kts 262°
2026-05-06 13:14 35.81827 138.91232 32796 ft 393 kts 262°
2026-05-06 13:14 35.81667 138.87862 33161 ft 395 kts 262°
2026-05-06 13:14 35.81507 138.84478 33499 ft 397 kts 262°
2026-05-06 13:14 35.81343 138.81070 33795 ft 400 kts 262°
2026-05-06 13:15 35.81170 138.77691 34007 ft 402 kts 262°
2026-05-06 13:15 35.80993 138.74250 34321 ft 404 kts 261°
2026-05-06 13:15 35.80822 138.70795 34635 ft 404 kts 261°
2026-05-06 13:15 35.80649 138.67391 35290 ft 395 kts 261°
2026-05-06 13:16 35.80474 138.64030 35772 ft 392 kts 261°
2026-05-06 13:16 35.80301 138.60677 36008 ft 394 kts 261°
2026-05-06 13:16 35.80126 138.57303 36166 ft 396 kts 261°
2026-05-06 13:17 35.79776 138.50561 36187 ft 393 kts 261°
2026-05-06 13:17 35.79424 138.43886 36182 ft 393 kts 261°
2026-05-06 13:18 35.79073 138.37154 36179 ft 394 kts 262°
2026-05-06 13:18 35.78719 138.30425 36177 ft 394 kts 261°
2026-05-06 13:19 35.78343 138.23698 36177 ft 393 kts 262°
2026-05-06 13:19 35.77971 138.16996 36189 ft 393 kts 261°
2026-05-06 13:20 35.77582 138.10337 36162 ft 393 kts 261°
2026-05-06 13:20 35.77235 138.03608 36181 ft 394 kts 262°
2026-05-06 13:21 35.76950 137.96881 36177 ft 394 kts 262°
2026-05-06 13:21 35.76681 137.90131 36177 ft 394 kts 262°
2026-05-06 13:22 35.76415 137.83468 36171 ft 391 kts 262°
2026-05-06 13:22 35.76149 137.76795 36163 ft 391 kts 262°
2026-05-06 13:23 35.75867 137.70054 36165 ft 400 kts 262°
2026-05-06 13:23 35.75551 137.63137 36165 ft 409 kts 262°
2026-05-06 13:24 35.75240 137.56166 36160 ft 411 kts 262°
2026-05-06 13:24 35.74936 137.49135 36161 ft 412 kts 262°
2026-05-06 13:25 35.74649 137.42086 36168 ft 412 kts 262°
2026-05-06 13:25 35.74367 137.35071 36160 ft 412 kts 262°
2026-05-06 13:26 35.74058 137.28067 36159 ft 413 kts 262°
2026-05-06 13:26 35.73735 137.21011 36149 ft 412 kts 262°
2026-05-06 13:27 35.73407 137.13967 36150 ft 412 kts 262°
2026-05-06 13:27 35.73077 137.06942 36142 ft 412 kts 262°
2026-05-06 13:28 35.72741 136.99922 36141 ft 411 kts 262°
2026-05-06 13:28 35.72403 136.92941 36138 ft 413 kts 262°
2026-05-06 13:29 35.72053 136.85855 36139 ft 415 kts 262°
2026-05-06 13:29 35.71701 136.78773 36136 ft 415 kts 262°
2026-05-06 13:30 35.71344 136.71662 36139 ft 418 kts 262°
2026-05-06 13:30 35.70986 136.64555 36128 ft 419 kts 262°
2026-05-06 13:31 35.70617 136.57381 36126 ft 421 kts 262°
2026-05-06 13:31 35.70243 136.50200 36131 ft 421 kts 262°
2026-05-06 13:32 35.69869 136.43018 36129 ft 420 kts 262°
2026-05-06 13:32 35.69486 136.35844 36095 ft 421 kts 262°
2026-05-06 13:33 35.69099 136.28651 36125 ft 427 kts 263°
2026-05-06 13:33 35.68697 136.21295 36113 ft 433 kts 263°
2026-05-06 13:34 35.68289 136.13897 36108 ft 435 kts 263°
2026-05-06 13:34 35.67875 136.06476 36109 ft 435 kts 263°
2026-05-06 13:35 35.67460 135.99090 36110 ft 436 kts 263°
2026-05-06 13:35 35.67035 135.91636 36105 ft 439 kts 263°
2026-05-06 13:36 35.66603 135.84131 36104 ft 442 kts 264°
2026-05-06 13:36 35.66160 135.76501 36105 ft 451 kts 264°
2026-05-06 13:37 35.65711 135.68853 36102 ft 453 kts 265°
2026-05-06 13:37 35.65250 135.61088 36105 ft 457 kts 265°
2026-05-06 13:38 35.64781 135.53291 36108 ft 458 kts 265°
2026-05-06 13:38 35.64307 135.45485 36105 ft 458 kts 265°
2026-05-06 13:39 35.63831 135.37729 36108 ft 458 kts 265°
2026-05-06 13:39 35.63347 135.29924 36099 ft 458 kts 264°
2026-05-06 13:40 35.62857 135.22105 36102 ft 459 kts 264°
2026-05-06 13:40 35.62361 135.14286 36106 ft 460 kts 264°
2026-05-06 13:41 35.61862 135.06471 36044 ft 455 kts 264°
2026-05-06 13:41 35.61622 135.02677 35428 ft 450 kts 265°
2026-05-06 13:41 35.61374 134.98810 34202 ft 460 kts 266°
2026-05-06 13:41 35.61110 134.94817 32555 ft 478 kts 267°
2026-05-06 13:42 35.60835 134.90701 31320 ft 486 kts 267°
2026-05-06 13:42 35.60558 134.86548 30381 ft 488 kts 267°
2026-05-06 13:42 35.60280 134.82435 29194 ft 478 kts 267°
2026-05-06 13:42 35.60006 134.78391 27681 ft 472 kts 267°
2026-05-06 13:43 35.59735 134.74399 26348 ft 464 kts 267°
2026-05-06 13:43 35.59471 134.70505 25121 ft 455 kts 266°
2026-05-06 13:43 35.59214 134.66709 23930 ft 447 kts 266°
2026-05-06 13:43 35.58958 134.62943 22534 ft 439 kts 266°
2026-05-06 13:44 35.58705 134.59225 21108 ft 434 kts 266°
2026-05-06 13:44 35.58456 134.55591 20301 ft 416 kts 266°
2026-05-06 13:44 35.58222 134.52158 19838 ft 392 kts 266°
2026-05-06 13:44 35.58000 134.48839 19318 ft 388 kts 266°
2026-05-06 13:45 35.57778 134.45545 18769 ft 386 kts 266°
2026-05-06 13:45 35.57330 134.39029 17599 ft 380 kts 266°
2026-05-06 13:45 35.57109 134.35857 17044 ft 376 kts 265°
2026-05-06 13:46 35.56886 134.32674 16511 ft 372 kts 265°
2026-05-06 13:46 35.56665 134.29524 15966 ft 368 kts 265°
2026-05-06 13:46 35.56444 134.26411 15432 ft 365 kts 265°
2026-05-06 13:46 35.56225 134.23321 14903 ft 361 kts 265°
2026-05-06 13:47 35.56006 134.20261 14383 ft 358 kts 265°
2026-05-06 13:47 35.55789 134.17230 13855 ft 355 kts 264°
2026-05-06 13:47 35.55573 134.14222 13246 ft 353 kts 264°
2026-05-06 13:47 35.55359 134.11262 12721 ft 348 kts 264°
2026-05-06 13:48 35.55145 134.08302 12207 ft 343 kts 264°
2026-05-06 13:48 35.54938 134.05446 11732 ft 339 kts 264°
2026-05-06 13:48 35.54734 134.02578 11216 ft 335 kts 264°
2026-05-06 13:48 35.54532 133.99744 10724 ft 331 kts 264°
2026-05-06 13:49 35.54335 133.96989 10558 ft 316 kts 264°
2026-05-06 13:49 35.54147 133.94362 10431 ft 302 kts 264°
2026-05-06 13:49 35.53969 133.91862 10324 ft 288 kts 264°
2026-05-06 13:49 35.53798 133.89466 10183 ft 275 kts 264°
2026-05-06 13:50 35.53634 133.87177 10065 ft 264 kts 263°
2026-05-06 13:50 35.53470 133.84971 9935 ft 268 kts 263°
2026-05-06 13:50 35.53293 133.82658 9880 ft 279 kts 263°
2026-05-06 13:50 35.53113 133.80303 9538 ft 277 kts 263°
2026-05-06 13:51 35.52936 133.77977 9079 ft 277 kts 263°
2026-05-06 13:51 35.52754 133.75607 8735 ft 276 kts 263°
2026-05-06 13:51 35.52686 133.74735 8621 ft 276 kts 263°
2026-05-06 13:51 35.52667 133.74492 8587 ft 276 kts 263°